Location: Borz?cin
(51.1714°N, 19.6030°E)
Time: 18:11:38
(UTC+00:00)

Cosmos 1459 Rocket - Pass Details

Date: 19 May 2025
Orbit: 936 x 998 km, 83.0° (Epoch: 20 June)

Event Time Altitude Azimuth Distance (km) Brightness Sun altitude
Rises 22:55:05 0° 350° (N) 3,624 8.5 -18.7°
Reaches altitude 10° 22:57:34 10° 351° (N) 2,681 7.5 -18.7°
Maximum altitude 23:03:43 84° 79° (E) 969 3.9 -18.6°
Enters shadow 23:07:07 29° 167° (SSE) 1,694 4.7 -18.6°
